| time (UTC) | temp C | wind direction | speed KPH | gust KPH | rain 1hr cm | rain 24hr cm | rain mn cm | humidity % | barometer mb |
| 20260509000016 | 15 | 249 | 1.6 | 9.7 | 0.00 | 0.03 | 0.03 | 37 | 1006.3 |
| 20260508234518 | 16 | 243 | 3.2 | 14.5 | 0.00 | 0.03 | 0.03 | 37 | 1006.2 |
| 20260508233026 | 16 | 344 | 4.8 | 16.1 | 0.00 | 0.03 | 0.03 | 35 | 1006.2 |
| 20260508231508 | 16 | 252 | 6.4 | 12.9 | 0.00 | 0.03 | 0.03 | 34 | 1006.2 |
| 20260508230013 | 17 | 215 | 3.2 | 17.7 | 0.00 | 0.03 | 0.03 | 36 | 1006.2 |
| 20260508224514 | 17 | 293 | 6.4 | 16.1 | 0.00 | 0.03 | 0.03 | 34 | 1006.3 |
| 20260508223004 | 16 | 225 | 3.2 | 17.7 | 0.00 | 0.03 | 0.03 | 35 | 1006.4 |
| 20260508221506 | 17 | 249 | 6.4 | 14.5 | 0.00 | 0.03 | 0.03 | 34 | 1006.5 |
| 20260508220014 | 17 | 228 | 1.6 | 16.1 | 0.00 | 0.03 | 0.03 | 38 | 1006.5 |
| 20260508214524 | 17 | 253 | 1.6 | 19.3 | 0.00 | 0.03 | 0.03 | 38 | 1006.6 |
| 20260508213001 | 16 | 232 | 4.8 | 14.5 | 0.00 | 0.03 | 0.03 | 35 | 1006.7 |
| 20260508211510 | 17 | 221 | 12.9 | 17.7 | 0.00 | 0.03 | 0.03 | 35 | 1006.8 |
| 20260508210016 | 17 | 248 | 6.4 | 19.3 | 0.00 | 0.03 | 0.03 | 37 | 1006.9 |
| 20260508204516 | 16 | 218 | 8.0 | 25.7 | 0.00 | 0.03 | 0.03 | 36 | 1006.9 |
| 20260508203028 | 17 | 250 | 3.2 | 14.5 | 0.00 | 0.03 | 0.03 | 34 | 1007.1 |
| 20260508201505 | 16 | 267 | 4.8 | 11.3 | 0.00 | 0.03 | 0.03 | 34 | 1007.5 |
| 20260508200007 | 16 | 215 | 4.8 | 16.1 | 0.00 | 0.03 | 0.03 | 37 | 1007.7 |
| 20260508194514 | 16 | 257 | 4.8 | 12.9 | 0.00 | 0.03 | 0.03 | 35 | 1008.0 |
| 20260508193016 | 16 | 316 | 4.8 | 16.1 | 0.00 | 0.03 | 0.03 | 32 | 1008.2 |
| 20260508191522 | 16 | 252 | 6.4 | 16.1 | 0.00 | 0.03 | 0.03 | 35 | 1008.4 |
| 20260508190007 | 16 | 323 | 4.8 | 14.5 | 0.00 | 0.03 | 0.03 | 42 | 1008.5 |
| 20260508184517 | 15 | 352 | 6.4 | 16.1 | 0.00 | 0.03 | 0.03 | 32 | 1008.7 |
| 20260508183015 | 15 | 262 | 1.6 | 19.3 | 0.00 | 0.03 | 0.03 | 36 | 1008.9 |
| 20260508181518 | 15 | 232 | 3.2 | 16.1 | 0.00 | 0.03 | 0.03 | 38 | 1009.0 |
| 20260508180024 | 15 | 219 | 6.4 | 17.7 | 0.00 | 0.03 | 0.03 | 36 | 1009.1 |
| 20260508174507 | 15 | 130 | 4.8 | 12.9 | 0.00 | 0.03 | 0.03 | 37 | 1009.4 |
| 20260508173013 | 15 | 335 | 8.0 | 12.9 | 0.00 | 0.03 | 0.03 | 37 | 1009.8 |
| 20260508171524 | 14 | 259 | 9.7 | 19.3 | 0.00 | 0.03 | 0.03 | 35 | 1010.0 |
| 20260508170024 | 14 | 194 | 6.4 | 16.1 | 0.00 | 0.03 | 0.03 | 38 | 1010.2 |
| 20260508164527 | 14 | 236 | 4.8 | 11.3 | 0.00 | 0.03 | 0.03 | 39 | 1010.3 |
| 20260508163014 | 13 | 225 | 8.0 | 17.7 | 0.00 | 0.03 | 0.03 | 35 | 1010.5 |
| 20260508161527 | 13 | 228 | 4.8 | 16.1 | 0.00 | 0.03 | 0.03 | 42 | 1010.8 |
| 20260508160022 | 13 | 192 | 4.8 | 16.1 | 0.00 | 0.03 | 0.03 | 40 | 1010.8 |
| 20260508154526 | 12 | 187 | 4.8 | 16.1 | 0.00 | 0.03 | 0.03 | 42 | 1010.9 |
| 20260508153047 | 13 | 230 | 4.8 | 12.9 | 0.00 | 0.03 | 0.03 | 46 | 1011.0 |
| 20260508151514 | 12 | 44 | 1.6 | 14.5 | 0.00 | 0.03 | 0.03 | 49 | 1011.0 |
| 20260508150020 | 11 | 271 | 1.6 | 12.9 | 0.00 | 0.03 | 0.03 | 47 | 1011.2 |
| 20260508144524 | 11 | 234 | 6.4 | 9.7 | 0.00 | 0.03 | 0.03 | 50 | 1011.2 |
| 20260508143027 | 11 | 244 | 6.4 | 9.7 | 0.00 | 0.03 | 0.03 | 51 | 1011.5 |
| 20260508141512 | 10 | 26 | 3.2 | 6.4 | 0.00 | 0.03 | 0.03 | 53 | 1011.6 |
| 20260508140016 | 10 | 290 | 1.6 | 6.4 | 0.00 | 0.03 | 0.03 | 56 | 1011.6 |
| 20260508134510 | 10 | 175 | 1.6 | 8.0 | 0.00 | 0.03 | 0.03 | 60 | 1011.7 |
| 20260508133004 | 10 | 296 | 1.6 | 6.4 | 0.00 | 0.03 | 0.03 | 61 | 1011.7 |
| 20260508131508 | 10 | 85 | 0.0 | 4.8 | 0.00 | 0.03 | 0.03 | 68 | 1011.7 |
| 20260508130015 | 8 | 228 | 1.6 | 4.8 | 0.00 | 0.03 | 0.03 | 69 | 1011.9 |
| 20260508124520 | 7 | 246 | 0.0 | 4.8 | 0.00 | 0.03 | 0.03 | 78 | 1011.7 |
| 20260508123008 | 6 | 196 | 0.0 | 3.2 | 0.00 | 0.03 | 0.03 | 86 | 1011.6 |
| 20260508121508 | 5 | 187 | 0.0 | 4.8 | 0.00 | 0.03 | 0.03 | 95 | 1011.4 |
| 20260508120011 | 4 | 352 | 0.0 | 0.0 | 0.03 | 0.03 | 0.03 | 96 | 1011.5 |
| 20260508114514 | 2 | 38 | 0.0 | 0.0 | 0.03 | 0.03 | 0.03 | 96 | 1011.3 |
| 20260508113022 | 1 | 38 | 0.0 | 0.0 | 0.03 | 0.03 | 0.03 | 95 | 1011.1 |
| 20260508111509 | 0 | 38 | 0.0 | 0.0 | 0.03 | 0.03 | 0.03 | 94 | 1010.9 |
| 20260508110022 | 0 | 38 | 0.0 | 0.0 | 0.00 | 0.00 | 0.00 | 93 | 1010.8 |
| 20260508104516 | 0 | 38 | 0.0 | 0.0 | 0.00 | 0.00 | 0.00 | 93 | 1010.9 |
| 20260508103035 | 0 | 38 | 0.0 | 0.0 | 0.00 | 0.00 | 0.00 | 93 | 1010.7 |
| 20260508101524 | 0 | 38 | 0.0 | 0.0 | 0.00 | 0.00 | 0.00 | 92 | 1010.8 |
| 20260508100005 | 0 | 38 | 0.0 | 0.0 | 0.00 | 0.00 | 0.00 | 92 | 1010.8 |
| 20260508094512 | 0 | 38 | 0.0 | 0.0 | 0.00 | 0.00 | 0.00 | 92 | 1011.0 |
| 20260508093016 | 0 | 38 | 0.0 | 0.0 | 0.00 | 0.00 | 0.00 | 92 | 1010.8 |
| 20260508091521 | 1 | 38 | 0.0 | 3.2 | 0.00 | 0.00 | 0.00 | 92 | 1011.0 |
| 20260508090027 | 1 | 38 | 0.0 | 0.0 | 0.00 | 0.00 | 0.00 | 91 | 1011.1 |
| 20260508084508 | 1 | 38 | 0.0 | 0.0 | 0.00 | 0.00 | 0.00 | 91 | 1010.9 |
| 20260508083014 | 2 | 38 | 0.0 | 0.0 | 0.00 | 0.00 | 0.00 | 91 | 1011.1 |
| 20260508081518 | 2 | 38 | 0.0 | 3.2 | 0.00 | 0.00 | 0.00 | 92 | 1011.0 |
| 20260508080024 | 2 | 69 | 0.0 | 3.2 | 0.00 | 0.00 | 0.00 | 92 | 1011.1 |
| 20260508074524 | 2 | 202 | 0.0 | 0.0 | 0.00 | 0.00 | 0.00 | 92 | 1011.1 |
| 20260508073008 | 2 | 202 | 0.0 | 1.6 | 0.00 | 0.00 | 0.00 | 91 | 1011.0 |
| 20260508071517 | 3 | 202 | 0.0 | 0.0 | 0.00 | 0.00 | 0.00 | 91 | 1011.0 |
| 20260508070022 | 3 | 202 | 0.0 | 0.0 | 0.00 | 0.00 | 0.00 | 91 | 1011.1 |
| 20260508064528 | 3 | 202 | 0.0 | 0.0 | 0.00 | 0.00 | 0.00 | 91 | 1011.4 |
| 20260508063026 | 3 | 202 | 0.0 | 0.0 | 0.00 | 0.00 | 0.00 | 91 | 1011.2 |
| 20260508061511 | 3 | 202 | 0.0 | 0.0 | 0.00 | 0.00 | 0.00 | 91 | 1011.2 |
| 20260508060025 | 4 | 202 | 0.0 | 0.0 | 0.00 | 0.00 | 0.00 | 91 | 1011.5 |
| 20260508054600 | 4 | 202 | 0.0 | 3.2 | 0.00 | 0.00 | 0.00 | 90 | 1011.5 |
| 20260508053030 | 4 | 177 | 0.0 | 1.6 | 0.00 | 0.00 | 0.00 | 90 | 1011.5 |
| 20260508051507 | 4 | 177 | 0.0 | 1.6 | 0.00 | 0.00 | 0.00 | 90 | 1011.7 |
| 20260508050014 | 5 | 177 | 0.0 | 0.0 | 0.00 | 0.00 | 0.00 | 88 | 1011.6 |
| 20260508044504 | 5 | 177 | 0.0 | 0.0 | 0.00 | 0.00 | 0.00 | 88 | 1011.4 |
| 20260508043004 | 5 | 166 | 0.0 | 0.0 | 0.00 | 0.00 | 0.00 | 89 | 1011.3 |
| 20260508041513 | 5 | 166 | 0.0 | 1.6 | 0.00 | 0.00 | 0.00 | 88 | 1011.3 |
| 20260508040012 | 5 | 166 | 0.0 | 3.2 | 0.00 | 0.00 | 0.00 | 86 | 1011.4 |
| 20260508034521 | 5 | 223 | 0.0 | 3.2 | 0.00 | 0.00 | 0.00 | 85 | 1011.7 |
| 20260508033011 | 5 | 223 | 0.0 | 0.0 | 0.00 | 0.00 | 0.00 | 84 | 1011.7 |
| 20260508031505 | 6 | 232 | 0.0 | 0.0 | 0.00 | 0.00 | 0.00 | 82 | 1011.7 |
| 20260508030010 | 6 | 232 | 0.0 | 3.2 | 0.00 | 0.00 | 0.00 | 81 | 1011.6 |
| 20260508024514 | 6 | 232 | 0.0 | 3.2 | 0.00 | 0.00 | 0.00 | 79 | 1011.4 |
| 20260508023018 | 6 | 232 | 0.0 | 0.0 | 0.00 | 0.00 | 0.00 | 76 | 1011.5 |
| 20260508021505 | 7 | 231 | 0.0 | 0.0 | 0.00 | 0.00 | 0.00 | 73 | 1011.3 |
| 20260508020008 | 7 | 231 | 0.0 | 3.2 | 0.00 | 0.00 | 0.00 | 65 | 1011.3 |
| 20260508014513 | 8 | 271 | 3.2 | 6.4 | 0.00 | 0.00 | 0.00 | 62 | 1011.3 |
| 20260508013016 | 8 | 305 | 1.6 | 11.3 | 0.00 | 0.00 | 0.00 | 60 | 1011.3 |
| 20260508011522 | 8 | 346 | 3.2 | 30.6 | 0.00 | 0.00 | 0.00 | 60 | 1011.3 |
| 20260508010016 | 9 | 278 | 0.0 | 3.2 | 0.00 | 0.00 | 0.00 | 58 | 1011.0 |
| 20260508004518 | 9 | 278 | 0.0 | 4.8 | 0.00 | 0.00 | 0.00 | 51 | 1010.7 |
| 20260508003012 | 10 | 282 | 0.0 | 4.8 | 0.00 | 0.00 | 0.00 | 49 | 1010.7 |
| 20260508001518 | 10 | 254 | 0.0 | 4.8 | 0.00 | 0.00 | 0.00 | 50 | 1010.6 |